(177173) = 2003 SP164

Discovered at Anderson Mesa on 2003-09-20 by LONEOS.

Orbit

Orbit type: Main Belt

Note: WebGL enabled browser required.

epoch2023-09-13.0
epoch JD2460200.5
perihelion date2023-09-01.28590
perihelion JD2460188.78590
argument of perihelion (°)333.22391
ascending node (°)22.65921
inclination (°)8.56773
eccentricity0.1699683
perihelion distance (AU)1.8568077
Tisserand w.r.t. Jupiter3.6
ΔV w.r.t. Earth (km/sec)8.8
semimajor axis (AU)2.2370322
mean anomaly (°)3.45068
mean daily motion (°/day)0.29457470
aphelion distance (AU)2.617
period (years)3.35
P-vector [x]0.99548286
P-vector [y]-0.03491371
P-vector [z]-0.08828878
Q-vector [x]0.07562956
Q-vector [y]0.85377343
Q-vector [z]0.51512241
absolute magnitude17.12
phase slope0.15
uncertainty0
referenceMPEC 2024-A55
observations used525
oppositions14
arc length (days)7924
first opposition used2002
last opposition used2023
residual rms (arc-secs)0.78
perturbers coarse indicatorM-v
perturbers precise indicator003Ek
first observation date used2002-04-08.0
last observation date used2023-12-18.0
computer nameMPCLINUX
JD of orbit computation2456639.672141
perihelion JD uncertainty (days)5.5290E-05
argument of perihelion uncertainty (°)2.8955E-05
ascending node uncertainty (°)2.1974E-05
inclination uncertainty (°)1.0384E-05
eccentricity uncertainty 9.0359E-08
perihelion distance uncertainty (AU)2.0356E-07
Minimum Orbit Intersection Distances (in AU)
for orbit epoch: 2460200.5, reference: E2023-Y63
Mercury1.47982
Venus1.13003
Earth0.85698
Mars0.46286
Jupiter2.82311
Saturn6.71543
Uranus15.8408
Neptune27.8623

Observations

527 total observations over interval: 2002 04 08.27344 – 2023 12 18.179767
These data are available for download (format description).

Date (UT) J2000 RA J2000 Dec Magn Location Ref
2002 04 08.27344 13 38 26.17 -10 21 32.4 21.0   644 – Palomar Mountain/NEAT MPS 90527
2002 04 08.34864 13 38 21.20 -10 21 20.6 20.2   644 – Palomar Mountain/NEAT MPS 90527
2002 04 08.41163 13 38 17.03 -10 21 10.9 20.6   644 – Palomar Mountain/NEAT MPS 90527
2002 04 14.27403 13 31 53.07 -10 04 56.6 19.1   704 – Lincoln Laboratory ETS, New Mexico MPS 90527
2002 04 14.28808 13 31 52.14 -10 04 53.4 19.9   704 – Lincoln Laboratory ETS, New Mexico MPS 90527
2002 04 14.30215 13 31 51.16 -10 04 51.5 19.8   704 – Lincoln Laboratory ETS, New Mexico MPS 90527
2002 04 14.31624 13 31 50.16 -10 04 49.2 19.5   704 – Lincoln Laboratory ETS, New Mexico MPS 90527
2002 04 14.33032 13 31 49.29 -10 04 46.8 20.3   704 – Lincoln Laboratory ETS, New Mexico MPS 90527
2003 09 20.37091 02 14 50.17 +11 24 25.5 18.9 R 699 – Lowell Observatory-LONEOS MPS 85526
2003 09 20.38431 02 14 49.84 +11 24 29.3   699 – Lowell Observatory-LONEOS MPS 85526
2003 09 20.39764 02 14 49.46 +11 24 32.8   699 – Lowell Observatory-LONEOS MPS 85526
2003 09 20.41100 02 14 49.09 +11 24 36.4   699 – Lowell Observatory-LONEOS MPS 85526
2003 09 22.45451 02 13 52.61 +11 33 41.5 19.3 V 691 – Steward Observatory, Kitt Peak-Spacewatch MPS 85526
2003 09 22.47423 02 13 51.97 +11 33 46.7 19.5 V 691 – Steward Observatory, Kitt Peak-Spacewatch MPS 85526
2003 09 22.49692 02 13 51.24 +11 33 52.4 19.5 V 691 – Steward Observatory, Kitt Peak-Spacewatch MPS 85526
2003 09 26.29310 02 11 40.60 +11 49 27.2 18.7   704 – Lincoln Laboratory ETS, New Mexico MPS 86325
2003 09 26.30568 02 11 40.07 +11 49 30.7 18.9   704 – Lincoln Laboratory ETS, New Mexico MPS 86325
2003 09 26.31831 02 11 39.53 +11 49 33.0 19.2   704 – Lincoln Laboratory ETS, New Mexico MPS 86325
2003 09 26.33102 02 11 39.03 +11 49 36.1 19.0   704 – Lincoln Laboratory ETS, New Mexico MPS 86325
2003 09 26.34376 02 11 38.49 +11 49 40.0 19.1   704 – Lincoln Laboratory ETS, New Mexico MPS 86325
2003 09 29.30653 02 09 33.17 +12 00 40.3 20.0   704 – Lincoln Laboratory ETS, New Mexico MPS 87061
2003 09 29.31975 02 09 32.54 +12 00 42.9 19.8   704 – Lincoln Laboratory ETS, New Mexico MPS 87061
2003 09 29.33298 02 09 31.96 +12 00 45.3 19.9   704 – Lincoln Laboratory ETS, New Mexico MPS 87061
2003 09 29.34635 02 09 31.33 +12 00 49.8 20.0   704 – Lincoln Laboratory ETS, New Mexico MPS 87061
2003 10 16.37068 01 52 35.02 +12 45 38.2 18.9 V 691 – Steward Observatory, Kitt Peak-Spacewatch MPS 87349
2003 10 16.40008 01 52 32.88 +12 45 41.1 19.2 V 691 – Steward Observatory, Kitt Peak-Spacewatch MPS 87349
2003 10 16.42966 01 52 30.75 +12 45 44.2 19.0 V 691 – Steward Observatory, Kitt Peak-Spacewatch MPS 87349
2003 10 20.26757 01 48 01.64 +12 51 59.7 18.5   704 – Lincoln Laboratory ETS, New Mexico MPS 88216
2003 10 20.27962 01 48 00.76 +12 52 01.0 18.6   704 – Lincoln Laboratory ETS, New Mexico MPS 88216
2003 10 20.29165 01 47 59.90 +12 52 02.5 18.4   704 – Lincoln Laboratory ETS, New Mexico MPS 88216
2003 10 21.21824 01 46 54.64 +12 53 21.6 18.3 R 699 – Lowell Observatory-LONEOS MPS 88216
2003 10 21.23816 01 46 53.07 +12 53 23.6   699 – Lowell Observatory-LONEOS MPS 88216
2003 10 21.25817 01 46 51.66 +12 53 25.8   699 – Lowell Observatory-LONEOS MPS 88216
2003 10 21.27820 01 46 50.14 +12 53 27.0   699 – Lowell Observatory-LONEOS MPS 88216
2003 10 21.27913 01 46 50.06 +12 53 27.8 18.1   704 – Lincoln Laboratory ETS, New Mexico MPS 88216
2003 10 21.29198 01 46 49.11 +12 53 29.3 18.6   704 – Lincoln Laboratory ETS, New Mexico MPS 88216
2003 10 21.30465 01 46 48.19 +12 53 29.8 18.5   704 – Lincoln Laboratory ETS, New Mexico MPS 88216
2003 10 21.31742 01 46 47.20 +12 53 31.4 18.9   704 – Lincoln Laboratory ETS, New Mexico MPS 88216
2003 10 21.32981 01 46 46.29 +12 53 32.7 18.8   704 – Lincoln Laboratory ETS, New Mexico MPS 88216
2003 10 23.40258 01 44 20.25 +12 56 22.2 19.6   608 – Haleakala-AMOS MPS 88216
2003 10 23.41362 01 44 19.45 +12 56 22.8 19.3   608 – Haleakala-AMOS MPS 88216
2003 10 23.42462 01 44 18.59 +12 56 24.4 19.3   608 – Haleakala-AMOS MPS 88216
2003 10 24.21095 01 43 23.65 +12 57 22.1 18.4   704 – Lincoln Laboratory ETS, New Mexico MPS 88216
2003 10 24.22272 01 43 22.79 +12 57 22.8 18.6   704 – Lincoln Laboratory ETS, New Mexico MPS 88216
2003 10 24.23454 01 43 21.90 +12 57 23.1 19.0   704 – Lincoln Laboratory ETS, New Mexico MPS 88216
2003 10 24.24642 01 43 21.06 +12 57 23.8 19.0   704 – Lincoln Laboratory ETS, New Mexico MPS 88216
2003 10 24.25818 01 43 20.18 +12 57 25.5 18.7   704 – Lincoln Laboratory ETS, New Mexico MPS 88216
2003 10 29.21525 01 37 40.74 +13 03 07.8 19.3   704 – Lincoln Laboratory ETS, New Mexico MPS 89479
2003 10 29.22744 01 37 39.81 +13 03 09.3 19.4   704 – Lincoln Laboratory ETS, New Mexico MPS 89479
2003 10 29.23942 01 37 39.01 +13 03 09.1 19.4   704 – Lincoln Laboratory ETS, New Mexico MPS 89479
2003 10 29.25155 01 37 38.18 +13 03 11.7 19.4   704 – Lincoln Laboratory ETS, New Mexico MPS 89479
2003 11 01.25841 01 34 23.40 +13 06 24.9 18.9   704 – Lincoln Laboratory ETS, New Mexico MPS 90527
2003 11 01.27068 01 34 22.57 +13 06 25.5 19.1   704 – Lincoln Laboratory ETS, New Mexico MPS 90527
2003 11 01.28387 01 34 21.74 +13 06 25.9 19.1   704 – Lincoln Laboratory ETS, New Mexico MPS 90527
2003 11 01.29707 01 34 20.83 +13 06 27.3 19.7   704 – Lincoln Laboratory ETS, New Mexico MPS 90527
2003 11 01.30935 01 34 20.05 +13 06 27.3 19.3   704 – Lincoln Laboratory ETS, New Mexico MPS 90527
2003 11 16.14146 01 21 55.26 +13 25 38.5 19.4 V 291 – LPL/Spacewatch II MPS 90994
2003 11 16.18044 01 21 53.80 +13 25 42.7 19.4 V 291 – LPL/Spacewatch II MPS 90994
2003 11 16.21818 01 21 52.34 +13 25 46.5 19.4 V 291 – LPL/Spacewatch II MPS 90994
2003 11 20.21799 01 19 49.03 +13 33 16.2 20.5   704 – Lincoln Laboratory ETS, New Mexico MPS 90994
2003 11 20.24387 01 19 48.40 +13 33 18.9 20.3   704 – Lincoln Laboratory ETS, New Mexico MPS 90994
2003 11 20.25690 01 19 48.09 +13 33 18.7 20.6   704 – Lincoln Laboratory ETS, New Mexico MPS 90994
2003 11 22.10755 01 19 03.98 +13 37 16.7 19.6 V 691 – Steward Observatory, Kitt Peak-Spacewatch MPS 91833
2003 11 22.13668 01 19 03.26 +13 37 20.7 19.7 V 691 – Steward Observatory, Kitt Peak-Spacewatch MPS 91833
2003 11 22.16587 01 19 02.54 +13 37 24.7 19.6 V 691 – Steward Observatory, Kitt Peak-Spacewatch MPS 91833
2003 11 24.13473 01 18 24.42 +13 41 58.9 19.3   704 – Lincoln Laboratory ETS, New Mexico MPS 91833
2003 11 24.14731 01 18 24.14 +13 42 01.7 19.7   704 – Lincoln Laboratory ETS, New Mexico MPS 91833
2003 11 24.15985 01 18 23.86 +13 42 02.9 19.9   704 – Lincoln Laboratory ETS, New Mexico MPS 91833
2003 11 24.18475 01 18 23.34 +13 42 07.2 19.6   704 – Lincoln Laboratory ETS, New Mexico MPS 91833
2005 04 13.12974 11 06 27.63 +11 39 17.0 20.9 V 691 – Steward Observatory, Kitt Peak-Spacewatch MPS 175113
2005 04 13.14525 11 06 27.02 +11 39 17.2 21.1 V 691 – Steward Observatory, Kitt Peak-Spacewatch MPS 175113
2005 04 13.16062 11 06 26.44 +11 39 15.5 21.3 V 691 – Steward Observatory, Kitt Peak-Spacewatch MPS 175113
2006 07 20.60205 20 32 01.64 -36 37 34.7 18.5 V E12 – Siding Spring Survey MPS 174836
2006 07 20.61227 20 32 00.88 -36 37 37.2 18.5 V E12 – Siding Spring Survey MPS 174836
2006 07 20.62222 20 32 00.34 -36 37 39.2 18.5 V E12 – Siding Spring Survey MPS 174836
2006 07 20.63211 20 31 59.52 -36 37 42.6 18.8 V E12 – Siding Spring Survey MPS 174836
2006 07 20.64198 20 31 58.80 -36 37 45.0 18.6 V E12 – Siding Spring Survey MPS 174836
2006 07 29.54990 20 21 33.04 -37 04 59.7 19.0 V E12 – Siding Spring Survey MPS 175434
2006 07 29.56429 20 21 31.93 -37 05 01.5 19.1 V E12 – Siding Spring Survey MPS 175434
2006 07 29.57802 20 21 30.92 -37 05 02.9 18.8 V E12 – Siding Spring Survey MPS 175434
2006 07 29.59154 20 21 29.88 -37 05 04.4 19.1 V E12 – Siding Spring Survey MPS 175434
2006 08 26.48850 19 56 21.66 -35 52 31.8 19.7 V E12 – Siding Spring Survey MPS 176991
2006 08 26.49840 19 56 21.37 -35 52 26.9 19.9 V E12 – Siding Spring Survey MPS 176991
2006 08 26.50833 19 56 21.12 -35 52 23.4 19.4 V E12 – Siding Spring Survey MPS 176991
2006 08 26.51822 19 56 20.86 -35 52 19.3 19.2 V E12 – Siding Spring Survey MPS 176991
2008 01 17.39824 09 45 58.60 +27 22 13.8 20.5 V G96 – Mt. Lemmon Survey MPS 234197
